[[{"header":{"parameterUnit":"m.s-1","parameterCategory":1,"la1":30.2991,"la2":30.254,"lo1":-89.0895,"lo2":-89.0444,"dy":0.0017,"dx":0.0017,"nx":28,"ny":28,"refTime":"2026-01-01T03:00:00:Z","depth":0,"parameterNumber":2,"parameterNumberName":"U-component_of_WINDS"},"data":[0,0,0,0,0,0,0,0,0,0,0,0,0,0,0,0,0,0,0,0,0,0,0,0,0,0,0,0,0,0,0,0,0,0,0,0,0,0,0,0,0,0,0,0,0,0,0,0,0,0,0,0,0,0,0,0,0,0,3.4613,3.4615,0,3.4793,3.4795,3.4797,3.4799,3.4797,3.4794,3.4792,3.4978,3.4984,3.4991,0,0,0,0,0,0,0,0,0,0,0,0,0,3.4275,3.4281,3.4613,3.4615,3.4618,3.4792,3.4795,3.4797,3.4799,3.4796,3.4794,3.4791,3.4975,3.4984,3.4992,0,0,0,0,0,0,0,0,0,0,0,0,0,3.4435,3.4283,3.4613,3.464,3.4644,3.4792,3.4795,3.4798,3.48,3.4796,3.4793,3.479,3.4973,3.4983,3.4993,3.5127,0,0,3.5026,3.503,0,0,0,0,0,0,0,0,3.4426,3.4447,3.4633,3.4638,3.4643,3.477,3.4743,3.4908,3.4801,3.4741,3.4792,3.4788,3.4911,3.4927,3.4968,3.5136,3.5143,3.5027,3.5033,3.5038,3.504,0,0,0,0,0,0,0,3.4415,3.4439,3.4684,3.4636,3.4642,3.4644,3.4662,3.4775,3.4843,3.4746,3.4746,3.4767,3.4913,3.4958,3.4972,3.5146,3.5026,3.5036,3.5042,3.5046,3.5434,3.5438,0,0,0,0,0,0,3.4398,3.443,3.4678,3.4689,3.4524,3.4652,3.4674,3.4733,3.4842,3.4855,3.477,3.4767,3.4941,3.496,3.4979,3.5143,3.5037,3.5047,3.5053,3.543,3.5435,3.5439,0,0,0,0,0,0,3.439,3.442,3.4671,3.456,3.4592,3.4662,3.4728,3.4738,3.4782,3.486,3.4873,3.4803,3.4939,3.4964,3.509,3.515,3.5052,3.5062,3.5425,3.5432,3.5437,3.5473,0,0,0,0,0,0,3.4381,3.4417,3.4468,3.4561,3.4598,3.4779,3.4732,3.4744,3.48,3.4798,3.4894,3.4907,3.4939,3.5074,3.5101,3.5163,3.507,3.542,3.5428,3.5435,3.5467,3.5479,3.549,0,0,0,0,0,3.4369,3.4471,3.4471,3.4501,3.4663,3.4782,3.4804,3.4837,3.4805,3.4857,3.4908,3.4904,3.5139,3.5087,3.5117,3.5183,3.5417,3.5426,3.5435,3.5461,3.5477,3.549,0,0,0,0,0,0,3.4383,3.4484,3.4484,3.462,3.4692,3.4782,3.4849,3.4852,3.4936,3.493,3.4969,3.4991,3.5117,3.5163,3.5103,3.5319,3.5274,3.5289,3.5284,3.53,3.5311,3.5298,3.5079,0,0,0,0,0,3.4402,3.449,3.4573,3.4685,3.4721,3.4779,3.4832,3.4852,3.4929,3.496,3.502,3.5095,3.5186,3.5245,3.5333,3.5473,3.5495,3.5533,3.5545,3.5554,3.5567,3.5645,3.5664,3.5468,3.5468,3.5468,0,0,3.4442,3.4508,3.4561,3.469,3.4748,3.4839,3.4805,3.4902,3.497,3.4975,3.5098,3.5144,3.5232,3.5365,3.5427,3.5407,3.5626,3.5565,3.5572,3.558,3.5656,3.5675,3.5691,3.5474,3.5473,3.5472,0,0,3.4562,3.462,3.472,3.478,3.4869,3.4907,3.4931,3.5021,3.5052,3.5176,3.5181,3.5263,3.5419,3.5481,3.5533,3.5678,3.5678,3.5705,3.5766,3.5843,3.5858,3.5872,3.5924,3.5942,3.5718,3.5718,3.5718,0,3.4601,3.4737,3.4771,3.4869,3.4926,3.4934,3.5036,3.5093,3.5206,3.5246,3.5221,3.5418,3.5477,3.5626,3.5661,3.5703,3.5732,3.5695,3.5853,3.5867,3.5881,3.5931,3.5951,3.5721,3.572,3.572,3.572,0,3.4781,3.4876,3.4946,3.5056,3.512,3.522,3.5269,3.5331,3.5345,3.5386,3.5513,3.5584,3.5687,3.5724,3.5739,3.5876,3.5861,3.5844,3.58,3.5901,3.595,3.5969,3.5725,3.5724,3.5723,3.5722,0,0,3.4915,3.5042,3.5067,3.5118,3.5217,3.5291,3.5392,3.5492,3.5545,3.5623,3.5709,3.5841,3.5827,3.5886,3.5908,3.5975,3.6086,3.5951,3.5953,3.5974,3.6242,3.6254,3.6276,3.6087,3.609,3.6093,3.6235,0,3.5046,3.5224,3.5258,3.5413,3.5501,3.5511,3.5599,3.567,3.5711,3.5793,3.5838,3.5931,3.5905,3.5941,3.6007,3.6058,3.6141,3.6049,3.6168,3.6172,3.6146,3.6301,3.6314,3.6444,3.6254,3.6257,3.626,0,3.5222,3.5305,3.5469,3.5558,3.5596,3.5674,3.577,3.5847,3.5929,3.5954,3.602,3.6035,3.6141,3.6092,3.6239,3.6176,3.6227,3.6259,3.6265,3.6278,3.6222,3.6319,3.6487,3.6506,3.6289,3.6287,3.6285,0,3.5304,3.5457,3.5575,3.5617,3.5723,3.5778,3.5825,3.5903,3.5962,3.6045,3.6084,3.6179,3.6231,3.6305,3.6346,3.6306,3.649,3.6444,3.6515,3.6514,3.6553,3.655,3.6732,3.6585,3.6585,3.6585,3.6584,0,3.5447,3.5548,3.5613,3.5686,3.5799,3.5837,3.5948,3.5994,3.6064,3.6146,3.616,3.6238,3.6287,3.6371,3.6404,3.6521,3.6545,3.6569,3.6577,3.6568,3.6565,3.6602,3.6594,3.659,3.6589,3.6588,3.6587,0,3.5558,3.5606,3.5735,3.5825,3.585,3.593,3.6007,3.6079,3.612,3.6224,3.6251,3.6316,3.6417,3.6464,3.6589,3.6611,3.6745,3.6746,3.6717,3.672,3.6788,3.6781,3.7001,3.7032,3.6864,3.6865,3.6866,0,3.5646,3.5724,3.5822,3.5878,3.5926,3.6016,3.6076,3.6117,3.6179,3.6278,3.6338,3.6439,3.6522,3.6683,3.6741,3.6837,3.6841,3.6912,3.6856,3.6845,3.6843,3.6838,3.6847,3.6922,3.6923,3.6925,3.6926,0,3.5798,3.5818,3.5904,3.5998,3.6069,3.6145,3.622,3.6266,3.6319,3.6388,3.6491,3.6555,3.6683,3.6783,3.6883,3.6933,3.6939,3.6943,3.6965,3.6957,3.6937,3.6949,3.6745,3.6938,3.6937,3.6936,3.6935,3.6935,3.5901,3.5971,3.6051,3.6146,3.6207,3.6277,3.6348,3.6399,3.6485,3.6591,3.6611,3.672,3.6801,3.6936,3.6988,3.7075,3.7059,3.709,3.7098,3.7105,3.7109,3.6923,3.7094,3.7093,3.7093,3.7093,3.7093,0,3.6054,3.6106,3.6193,3.6298,3.6373,3.6372,3.6455,3.6518,3.6614,3.6688,3.677,3.6889,3.6986,3.7053,3.7153,3.721,3.7215,3.7234,3.7231,3.7242,3.7118,3.7089,3.7228,3.7228,3.7228,3.7228,3.7228,3.7228,3.6143,3.626,3.629,3.6439,3.649,3.6597,3.6645,3.671,3.677,3.6901,3.6983,3.7025,3.7097,3.7202,3.7292,3.731,3.7346,3.7366,3.7383,3.7265,3.7251,3.7237,3.7211,3.7373,3.7373,3.75,3.7501,3.7502]},{"header":{"parameterUnit":"m.s-1","parameterCategory":1,"la1":30.2991,"la2":30.254,"lo1":-89.0895,"lo2":-89.0444,"dy":0.0017,"dx":0.0017,"nx":28,"ny":28,"refTime":"2026-01-01T03:00:00:Z","depth":0,"parameterNumber":3,"parameterNumberName":"V-component_of_WINDS"},"data":[0,0,0,0,0,0,0,0,0,0,0,0,0,0,0,0,0,0,0,0,0,0,0,0,0,0,0,0,0,0,0,0,0,0,0,0,0,0,0,0,0,0,0,0,0,0,0,0,0,0,0,0,0,0,0,0,0,0,-0.2617,-0.2618,0,-0.2722,-0.2723,-0.2724,-0.2772,-0.2772,-0.2772,-0.2772,-0.2882,-0.2884,-0.2887,0,0,0,0,0,0,0,0,0,0,0,0,0,-0.246,-0.2463,-0.2616,-0.2618,-0.2619,-0.2721,-0.2723,-0.2724,-0.2772,-0.2772,-0.2772,-0.2772,-0.2881,-0.2884,-0.2888,0,0,0,0,0,0,0,0,0,0,0,0,0,-0.2543,-0.2463,-0.2616,-0.2655,-0.266,-0.2721,-0.2723,-0.2725,-0.2772,-0.2772,-0.2772,-0.2772,-0.2879,-0.2884,-0.2888,-0.2919,0,0,-0.2902,-0.2904,0,0,0,0,0,0,0,0,-0.2538,-0.2549,-0.2648,-0.2653,-0.2658,-0.2734,-0.2708,-0.279,-0.2772,-0.273,-0.2772,-0.2772,-0.2833,-0.2841,-0.2861,-0.2924,-0.2929,-0.2902,-0.2905,-0.2907,-0.2908,0,0,0,0,0,0,0,-0.2532,-0.2544,-0.2658,-0.265,-0.2656,-0.2668,-0.268,-0.2724,-0.2781,-0.2733,-0.2737,-0.2749,-0.2835,-0.2857,-0.2864,-0.2931,-0.2902,-0.2906,-0.2909,-0.2911,-0.3027,-0.3027,0,0,0,0,0,0,-0.252,-0.2539,-0.2655,-0.2661,-0.2596,-0.2671,-0.2684,-0.2709,-0.278,-0.2791,-0.2749,-0.2751,-0.2849,-0.2859,-0.2868,-0.291,-0.2907,-0.2911,-0.2914,-0.3026,-0.3027,-0.3027,0,0,0,0,0,0,-0.2516,-0.253,-0.2651,-0.2601,-0.2618,-0.2674,-0.2702,-0.2712,-0.2733,-0.2792,-0.2803,-0.276,-0.2849,-0.2862,-0.2906,-0.2915,-0.2913,-0.2917,-0.3026,-0.3027,-0.3027,-0.2994,0,0,0,0,0,0,-0.2512,-0.2528,-0.254,-0.2601,-0.262,-0.2686,-0.2703,-0.2714,-0.274,-0.2744,-0.2805,-0.2815,-0.285,-0.2899,-0.2911,-0.2921,-0.2921,-0.3026,-0.3026,-0.3027,-0.2994,-0.2993,-0.2992,0,0,0,0,0,-0.2506,-0.2526,-0.254,-0.2554,-0.2636,-0.2686,-0.2697,-0.2736,-0.2741,-0.2754,-0.2792,-0.2813,-0.2912,-0.2904,-0.2917,-0.2928,-0.3025,-0.3026,-0.3027,-0.2995,-0.2993,-0.2992,0,0,0,0,0,0,-0.2464,-0.2535,-0.2551,-0.2592,-0.2633,-0.2694,-0.2711,-0.2733,-0.2774,-0.2776,-0.2823,-0.2836,-0.2877,-0.2907,-0.2897,-0.2963,-0.2971,-0.2974,-0.2942,-0.2941,-0.2939,-0.2931,-0.2925,0,0,0,0,0,-0.246,-0.2494,-0.2555,-0.2585,-0.2604,-0.2654,-0.2678,-0.2704,-0.2749,-0.2767,-0.2808,-0.2851,-0.2892,-0.2918,-0.2959,-0.2999,-0.3014,-0.3014,-0.3012,-0.3011,-0.3013,-0.3038,-0.3039,-0.303,-0.303,-0.303,0,0,-0.2451,-0.2494,-0.2513,-0.2577,-0.2612,-0.2648,-0.2669,-0.2705,-0.2733,-0.2773,-0.2817,-0.2849,-0.2901,-0.2944,-0.2965,-0.297,-0.3019,-0.3012,-0.3011,-0.3014,-0.3039,-0.304,-0.3041,-0.3031,-0.303,-0.303,0,0,-0.2453,-0.2489,-0.2518,-0.2553,-0.2605,-0.2639,-0.2646,-0.2705,-0.2728,-0.2773,-0.2804,-0.2838,-0.2907,-0.2943,-0.297,-0.2988,-0.3009,-0.3,-0.2993,-0.3017,-0.3018,-0.3018,-0.3025,-0.3027,-0.3002,-0.3002,-0.3002,0,-0.2436,-0.249,-0.2531,-0.2566,-0.2594,-0.2632,-0.2663,-0.2695,-0.2758,-0.2777,-0.2782,-0.2871,-0.2908,-0.296,-0.2964,-0.2985,-0.2996,-0.2993,-0.3014,-0.3015,-0.3017,-0.3024,-0.3026,-0.3,-0.3001,-0.3001,-0.3001,0,-0.2467,-0.2504,-0.2522,-0.2581,-0.2612,-0.2644,-0.2691,-0.2717,-0.2741,-0.2774,-0.2821,-0.2868,-0.2919,-0.2933,-0.2957,-0.299,-0.2992,-0.3005,-0.3013,-0.3015,-0.3023,-0.3026,-0.2998,-0.2999,-0.2999,-0.3,0,0,-0.2445,-0.2527,-0.2533,-0.2562,-0.2623,-0.2653,-0.2688,-0.2738,-0.276,-0.2803,-0.2834,-0.2893,-0.2906,-0.2936,-0.2965,-0.2986,-0.2998,-0.2997,-0.2999,-0.2996,-0.3038,-0.3027,-0.303,-0.3013,-0.3014,-0.3014,-0.3033,0,-0.2456,-0.252,-0.2558,-0.2607,-0.2643,-0.268,-0.2711,-0.2752,-0.2785,-0.2821,-0.2857,-0.2897,-0.2911,-0.293,-0.2952,-0.2991,-0.3007,-0.2991,-0.3044,-0.3045,-0.3029,-0.3034,-0.3023,-0.3039,-0.3037,-0.3037,-0.3038,0,-0.2477,-0.2519,-0.2571,-0.2629,-0.2646,-0.2673,-0.2722,-0.2756,-0.2804,-0.2827,-0.2862,-0.2891,-0.2931,-0.2936,-0.2993,-0.2981,-0.3006,-0.3028,-0.303,-0.3036,-0.3041,-0.3041,-0.3045,-0.3047,-0.3043,-0.3042,-0.3042,0,-0.2457,-0.2526,-0.2566,-0.2589,-0.2658,-0.2677,-0.2707,-0.2755,-0.2783,-0.2827,-0.2846,-0.2893,-0.292,-0.2957,-0.2999,-0.2999,-0.3052,-0.306,-0.3072,-0.3071,-0.3081,-0.308,-0.3089,-0.3096,-0.3096,-0.3096,-0.3096,0,-0.2465,-0.2496,-0.2558,-0.2583,-0.2619,-0.2664,-0.2698,-0.2731,-0.2774,-0.2807,-0.2843,-0.2873,-0.2926,-0.2964,-0.2997,-0.3039,-0.3051,-0.3071,-0.3079,-0.3068,-0.3065,-0.3084,-0.3084,-0.3097,-0.3097,-0.3097,-0.3097,0,-0.2448,-0.2491,-0.2538,-0.26,-0.2616,-0.264,-0.2693,-0.272,-0.2754,-0.2795,-0.2808,-0.2862,-0.2908,-0.2954,-0.3016,-0.3038,-0.308,-0.3091,-0.3063,-0.3068,-0.3078,-0.3076,-0.31,-0.3105,-0.3108,-0.3108,-0.3107,0,-0.2451,-0.2475,-0.2539,-0.2564,-0.2593,-0.2631,-0.266,-0.2705,-0.2734,-0.2792,-0.2812,-0.286,-0.2901,-0.2973,-0.3019,-0.3067,-0.308,-0.3085,-0.3088,-0.3076,-0.3081,-0.3079,-0.3082,-0.3084,-0.3083,-0.3083,-0.3083,0,-0.2451,-0.2471,-0.2511,-0.2558,-0.2591,-0.2631,-0.2672,-0.269,-0.2744,-0.2774,-0.2822,-0.2853,-0.2917,-0.2965,-0.3019,-0.3051,-0.3076,-0.3082,-0.3087,-0.3076,-0.3059,-0.3069,-0.306,-0.3081,-0.3081,-0.3081,-0.3081,-0.3082,-0.2444,-0.2468,-0.2517,-0.2561,-0.2596,-0.2634,-0.2662,-0.27,-0.274,-0.2795,-0.2819,-0.2867,-0.2917,-0.2991,-0.3023,-0.3062,-0.3069,-0.3076,-0.3078,-0.308,-0.3077,-0.3052,-0.3072,-0.3072,-0.3072,-0.3073,-0.3073,0,-0.2447,-0.248,-0.252,-0.2576,-0.261,-0.2631,-0.2678,-0.2706,-0.2747,-0.2791,-0.2831,-0.2886,-0.2933,-0.2983,-0.3033,-0.3055,-0.3068,-0.3067,-0.3066,-0.3073,-0.3068,-0.3059,-0.3055,-0.3055,-0.3055,-0.3055,-0.3055,-0.3055,-0.2452,-0.2494,-0.252,-0.258,-0.2615,-0.2661,-0.2686,-0.2722,-0.2757,-0.2816,-0.2856,-0.2888,-0.2935,-0.2989,-0.3034,-0.3048,-0.3065,-0.306,-0.3077,-0.3072,-0.3073,-0.3074,-0.3065,-0.3063,-0.3063,-0.3079,-0.3079,-0.3079]}]]